Regional Weather Roundup
Issued by NWS

Home | Current Version | Previous Version | Text Only | Print | Product List | Glossary Off
Versions: 1 2 3 4 5 6 7 8 9 10 11 12 13 14 15 16 17 18 19 20 21 22 23 24 25 26 27 28

000
ASUS45 KSLC 281510
RWRUT

UTAH REGIONAL WEATHER ROUNDUP
NATIONAL WEATHER SERVICE SALT LAKE CITY UT
900 AM MDT SUN AUG 28 2016

UTZ001>011-023>025-281600-

NORTHERN UTAH

CITY           SKY/WX    TMP DP  RH WIND       PRES   REMARKS
BRIGHAM CITY     N/A     67  37  32 W3        30.16S
HILL AFB       SUNNY     64  31  29 SE14      30.18R
LOGAN          SUNNY     56  41  57 NW3       30.18R
OGDEN          SUNNY     66  33  29 S9        30.16R
PROVO AIRPORT  SUNNY     64  41  42 SE7       30.21R
SALT LAKE CITY SUNNY     72  44  36 SE15      30.15R
VERNAL         SUNNY     64  42  44 N3        30.25R
WENDOVER       SUNNY     66  28  24 CALM      30.15R
HEBER CITY     SUNNY     52  39  62 CALM      30.27R
WEST JORDAN    SUNNY     68  45  43 S12       30.18S

$$

UTZ012>022-026-027-281600-

SOUTHERN/CENTRAL UTAH

CITY           SKY/WX    TMP DP  RH WIND       PRES   REMARKS
BLANDING       SUNNY     63  49  59 CALM      30.37S
BRYCE CANYON   SUNNY     52  45  77 W6        30.39S
CEDAR CITY     SUNNY     58  49  72 CALM      30.27R
MILFORD        SUNNY     63  48  58 SW16      30.22R
MOAB/CYNLANDS  PTSUNNY   68  49  50 E7        30.21R
PRICE          SUNNY     63  42  46 S3        30.29R
ST GEORGE      SUNNY     66  54  63 CALM      30.19R

$$

REGIONAL REPORTS     COLORADO/ARIZONA

CITY           SKY/WX    TMP DP  RH WIND       PRES   REMARKS
CRAIG, CO      SUNNY     58  38  47 CALM      30.31S
GRAND JUNCTION CLOUDY    62  49  62 S3        30.25R
RIFLE          CLOUDY    57  49  74 CALM      30.30R
MONTROSE       CLOUDY    60  46  59 SW3       30.31S
CORTEZ         CLOUDY    57  51  80 SW5       30.31R
PAGE, AZ       MOSUNNY   67  53  61 CALM      30.22R
GRAND CANYON   SUNNY     60  51  72 NE5       30.33R
KINGMAN        SUNNY     71  55  56 E5        30.15R
FLAGSTAFF      CLOUDY    52  49  89 CALM      30.34R

$$

REGIONAL REPORTS    NEVADA/IDAHO/WYOMING

CITY           SKY/WX    TMP DP  RH WIND       PRES   REMARKS
LAS VEGAS, NV  SUNNY     79  51  37 NE3       30.06R
ELY            SUNNY     54  40  59 S9        30.30R
ELKO           SUNNY     54  21  27 E5        30.22R
POCATELLO, ID  SUNNY     64  31  28 E6        30.15R
BURLEY         SUNNY     58  44  60 S5        30.13R
EVANSTON, WY   SUNNY     58  29  33 S8        30.32R
ROCK SPRINGS   SUNNY     60  28  29 CALM      30.30R

$$




USA.gov is the U.S. government's official web portal to all federal, state and local government web resources and services.